Printer-friendly version

IAU Minor Planet Center

Minor Planet Center

MPEC 2005-M35 : 2005 MW1

The following Minor Planet Electronic Circular may be linked-to from your own Web pages, but must not otherwise be redistributed electronically.


Read MPEC 2005-M34 Read MPEC 2005-M36


M.P.E.C. 2005-M35                                Issued 2005 June 21, 17:46 UT

     The Minor Planet Electronic Circulars contain information on unusual
         minor planets and routine data on comets.  They are published
   on behalf of Commission 20 of the International Astronomical Union by the
          Minor Planet Center, Smithsonian Astrophysical Observatory,
                          Cambridge, MA 02138, U.S.A.

                  Supported in part by the Brinson Foundation
             Prepared using the Tamkin Foundation Computer Network

                              MPC@CFA.HARVARD.EDU
          URL http://cfa-www.harvard.edu/iau/mpc.html  ISSN 1523-6714

                                   2005 MW1

Observations:
     K05M01W* C2005 06 17.70509 20 16 37.30 -39 00 33.2          18.8 R EM035E12
     K05M01W  C2005 06 17.71362 20 16 38.77 -39 00 27.0          18.7 R EM035E12
     K05M01W  C2005 06 17.72219 20 16 40.17 -39 00 20.3          18.5 R EM035E12
     K05M01W  C2005 06 17.73074 20 16 41.68 -39 00 15.9          18.3 R EM035E12
     K05M01W  C2005 06 17.78547 20 16 50.91 -38 59 35.4                 EM035E12
     K05M01W  C2005 06 17.78954 20 16 51.57 -38 59 31.9                 EM035E12
     K05M01W  C2005 06 17.83161 20 16 58.78 -38 59 00.1                 EM035E12
     K05M01W  C2005 06 17.83402 20 16 59.22 -38 58 57.7                 EM035E12
     K05M01W  C2005 06 19.41539 20 21 46.15 -38 39 15.7          18.6 R EM035474
     K05M01W  C2005 06 19.41632 20 21 46.30 -38 39 15.4          18.4 R EM035474
     K05M01W  C2005 06 19.41736 20 21 46.50 -38 39 14.7          18.6 R EM035474
     K05M01W 5C2005 06 21.42118 20 27 40.55 -38 12 09.4          19.0 R EM035673
     K05M01W 5C2005 06 21.42384 20 27 40.95 -38 12 06.7                 EM035673
     K05M01W 5C2005 06 21.43241 20 27 42.35 -38 11 59.5                 EM035673
     K05M01W 5C2005 06 21.43588 20 27 42.95 -38 11 56.2                 EM035673
     K05M01W  C2005 06 21.58646 20 28 09.95 -38 09 13.5          18.4 R EM035474
     K05M01W  C2005 06 21.58787 20 28 10.17 -38 09 12.6          18.7 R EM035474
     K05M01W  C2005 06 21.58928 20 28 10.43 -38 09 10.9          18.6 R EM035474
     K05M01W  C2005 06 21.59069 20 28 10.64 -38 09 09.8          18.4 R EM035474

Observer details:
474 Mount John Observatory, Lake Tekapo.  Observers A. C. Gilmore,
    P. M. Kilmartin.  Measurer P. M. Kilmartin.  1.0-m f/7.7 reflector + CCD.
673 Table Mountain Observatory, Wrightwood.  Observer J. Young.  0.6-m
    reflector + CCD.
E12 Siding Spring Survey.  Observer R. H. McNaught.  0.5-m Uppsala Schmidt
    + CCD.

Orbital elements:
2005 MW1
Epoch 2005 June 19.0 TT = JDT 2453540.5                 MPC
M 354.46899              (2000.0)            P               Q
n   0.19986038     Peri.  336.79962     +0.47510502     +0.87720341
a   2.8972429      Node   321.46770     -0.78891148     +0.38980693
e   0.5655909      Incl.    6.37828     -0.38973568     +0.28029401
P   4.93           H   19.7           G   0.15
From 19 observations 2005 June 17-21.

Ephemeris:
2005 MW1                 a,e,i = 2.90, 0.57, 6                   q = 1.2586
Date    TT    R. A. (2000) Decl.     Delta      r     Elong.  Phase     V
2005 06 19    20 20.50   -38 44.8    0.328    1.298   144.7    26.9    19.1
2005 06 29    20 49.05   -35 56.1    0.294    1.275   147.8    25.2    18.7
2005 07 09    21 13.40   -31 45.0    0.271    1.262   151.7    22.5    18.4
2005 07 19    21 32.07   -26 28.0    0.260    1.259   156.8    18.5    18.2
2005 07 29    21 44.82   -20 40.3    0.260    1.267   163.0    13.5    18.1
2005 08 08    21 52.44   -15 05.9    0.274    1.284   170.2     7.8    18.0
2005 08 18    21 56.85   -10 19.1    0.300    1.312   176.6     2.6    18.0
2005 08 28    22 00.02   -06 35.6    0.340    1.348   172.8     5.4    18.4
2005 09 07    22 03.47   -03 53.5    0.393    1.392   165.1    10.7    19.1
2005 09 17    22 08.33   -01 59.2    0.461    1.442   157.5    15.5    19.7
2005 09 27    22 14.98   -00 37.0    0.542    1.497   150.1    19.5    20.2
2005 10 07    22 23.45   +00 26.3    0.637    1.556   142.9    22.8    20.8
2005 10 17    22 33.62   +01 21.4    0.746    1.619   136.0    25.3    21.3
2005 10 27    22 45.17   +02 14.5    0.868    1.684   129.4    27.1    21.7

Kyle E. Smalley              (C) Copyright 2005 MPC           M.P.E.C. 2005-M35

Read MPEC 2005-M34 Read MPEC 2005-M36


Our Web policy. Index to the CBAT/MPC/ICQ pages.


Valid HTML 4.01!